Wind_Speed
39 38 37 37 37 37 36 35 35 34 33 32 32 31 31 31 30 30 30 29 29 29 29 29 29 30 30 30 30 31 31 32 32 32 32 32 33 33 33 33 33 33 32
42 41 40 39 39 38 38 38 37 37 36 35 34 34 33 33 32 32 31 31 31 31 31 31 31 32 32 32 32 33 33 33 33 33 34 34 34 35 35 34 34 33 33
44 44 42 41 41 41 40 40 40 39 39 38 37 37 36 35 35 34 34 33 33 33 33 33 33 33 33 33 34 35 35 35 35 36 36 36 36 36 36 36 35 34 34
46 45 43 43 43 43 42 41 41 41 40 39 39 39 38 38 38 36 36 35 35 35 35 35 35 35 36 36 37 37 37 37 37 37 37 38 37 38 38 37 36 35 35
48 47 45 44 44 43 43 42 42 41 41 41 40 40 39 39 39 38 37 36 37 37 37 37 38 38 38 38 38 38 38 39 39 39 39 39 39 39 39 38 37 37 36
50 49 48 47 45 45 44 43 42 42 43 42 41 41 40 41 41 39 38 38 39 39 39 39 39 39 39 39 39 39 39 39 40 41 41 41 40 40 39 39 39 38 36
52 51 50 49 48 46 45 44 44 43 42 43 43 43 42 42 41 41 41 40 40 40 40 41 40 40 40 40 40 41 41 41 43 43 42 42 41 41 41 40 40 38 37
54 52 51 50 49 48 46 45 44 44 44 43 43 43 43 42 42 41 41 41 41 42 42 43 42 42 41 42 42 43 43 42 43 44 44 43 43 43 42 41 40 39 38
54 53 52 51 49 47 46 45 44 44 45 44 44 43 42 42 42 42 43 43 43 43 42 43 43 43 43 43 43 44 44 44 45 45 44 44 44 44 43 41 41 40 39
54 52 51 50 50 49 48 48 47 45 44 44 44 44 44 43 43 43 43 43 43 42 42 43 44 44 44 44 45 47 47 47 47 46 46 46 46 45 44 43 42 41 40
53 52 51 50 49 48 47 48 48 47 45 45 45 46 46 45 44 44 43 42 43 43 44 45 46 46 46 47 47 48 48 49 48 48 48 47 47 47 46 45 44 42 41
50 50 50 49 49 48 47 46 46 47 46 46 46 46 45 45 44 45 44 43 43 44 45 47 48 48 49 50 50 50 51 51 50 50 49 48 48 48 46 46 44 42 41
48 49 49 49 48 48 47 46 47 46 45 44 44 45 45 46 45 45 46 46 46 47 48 49 49 51 52 52 52 52 53 53 53 52 51 50 49 48 47 46 45 43 41
47 47 48 49 48 47 46 45 44 43 44 44 44 44 45 46 47 48 49 49 49 49 49 50 51 53 53 53 54 55 55 55 55 54 53 52 51 49 48 47 45 43 42
42 43 44 45 46 45 45 44 44 45 45 46 46 46 47 48 48 50 51 52 52 52 52 53 54 55 56 57 57 58 57 57 56 56 55 54 53 52 50 48 46 43 42
37 38 39 41 42 43 44 45 45 46 47 47 48 48 49 50 51 53 53 54 55 56 56 55 56 57 58 59 60 60 60 60 59 58 57 55 54 52 49 47 45 44 42
33 34 35 37 38 39 40 42 44 45 46 48 49 50 51 52 53 55 56 57 58 59 60 59 60 60 60 60 60 60 60 59 58 57 56 54 52 51 49 47 44 44 42
28 30 32 33 35 36 38 41 42 44 46 47 49 50 51 51 53 53 55 56 58 60 61 62 62 61 60 60 60 59 58 57 56 54 53 51 50 48 47 46 45 44 43
25 27 29 31 33 35 37 39 40 42 43 46 48 49 51 52 52 53 54 56 58 60 62 63 63 62 62 62 61 60 58 55 54 53 52 49 47 46 45 44 43 43 41
24 26 28 29 32 33 35 37 39 41 42 44 46 48 51 53 53 54 56 58 59 61 62 63 63 62 61 59 59 58 57 55 53 51 50 48 46 46 45 43 42 42 42
24 25 26 28 30 32 33 34 37 38 39 42 45 47 49 52 53 54 56 58 59 59 60 60 60 59 59 58 57 56 56 56 54 52 50 48 47 47 46 44 42 41 40
21 23 24 26 28 30 32 34 35 38 39 42 44 47 49 51 53 55 56 57 57 56 57 58 57 56 56 56 55 55 55 53 52 50 48 47 47 46 45 45 43 41 40
20 22 24 26 28 30 32 34 36 39 42 44 46 48 50 52 53 54 55 56 56 56 57 57 56 56 55 54 53 51 51 50 49 47 46 45 44 42 42 42 41 40 40
21 23 26 28 30 32 34 37 39 41 43 45 47 48 50 51 52 53 54 54 54 55 56 56 55 53 52 51 51 49 49 48 47 46 46 45 43 42 41 41 40 38 38
24 26 29 30 32 34 36 38 40 41 43 45 47 49 50 50 52 53 54 54 54 53 53 52 51 51 50 50 49 49 48 48 47 46 45 45 43 42 42 41 40 39 38
27 29 30 32 34 36 37 39 41 42 44 46 48 50 51 51 52 52 52 52 52 51 51 50 49 49 49 49 49 49 48 48 46 46 45 44 43 42 42 40 40 39 38
Wind_Direction
247 249 250 249 251 252 253 254 254 254 255 255 255 257 258 259 261 262 264 265 266 267 269 271 274 276 278 279 282 284 286 288 290 292 294 296 298 299 302 303 303 304 303
247 248 249 249 250 252 253 254 254 254 255 256 257 258 260 261 261 263 264 266 268 269 270 272 274 276 277 279 281 283 285 287 290 291 294 295 297 298 301 301 301 302 302
246 247 248 250 251 252 252 253 254 255 256 257 257 258 260 261 262 263 265 266 267 268 270 272 274 276 277 279 281 282 283 285 288 290 292 294 295 297 299 300 299 299 301
245 245 247 249 250 251 251 253 254 255 255 256 258 259 260 260 262 264 264 266 267 268 270 273 274 276 277 278 280 281 282 284 286 288 290 292 294 296 298 298 298 299 300
245 246 246 248 250 250 250 252 254 255 256 258 259 260 260 261 261 263 264 266 268 269 271 272 274 274 276 278 279 280 281 282 284 286 288 291 293 294 296 296 297 297 297
244 244 245 247 250 250 250 251 253 255 256 257 258 260 260 261 262 263 265 267 269 270 272 272 273 274 276 278 278 279 280 282 284 286 287 289 291 293 294 295 296 296 295
243 244 244 246 248 250 250 249 251 254 256 257 258 259 261 262 263 264 265 267 270 271 272 273 273 274 275 276 277 279 281 282 284 285 287 288 289 290 292 293 295 295 294
243 243 243 246 248 249 249 250 251 253 255 257 259 260 261 262 263 265 266 268 270 272 273 274 274 275 275 276 278 279 281 283 284 285 286 286 288 289 291 293 294 293 293
241 242 242 244 246 247 248 249 250 253 254 256 257 260 262 263 264 265 267 269 270 271 273 275 275 276 277 277 278 279 280 282 283 284 285 285 286 288 289 291 292 292 291
240 240 242 244 245 247 248 248 249 252 255 256 258 261 263 264 265 266 267 269 271 272 273 275 276 277 278 278 280 280 280 281 282 283 283 284 285 286 287 289 290 290 289
241 241 243 244 245 247 249 249 250 251 254 257 259 261 263 264 266 267 267 268 270 272 273 275 276 277 278 280 281 281 280 281 282 283 283 283 284 284 285 287 287 287 286
240 241 242 244 247 249 250 252 252 253 254 258 260 262 263 264 266 268 268 269 270 272 274 276 277 278 280 281 281 281 280 281 281 282 282 282 283 284 285 285 285 284 284
241 241 242 244 247 249 250 251 252 253 256 260 262 262 263 264 265 268 270 271 272 273 275 277 278 279 281 282 282 282 281 280 280 281 281 282 282 283 283 283 282 281 281
242 242 243 243 245 248 250 251 253 255 258 259 261 263 264 265 267 269 272 272 274 275 276 278 280 281 280 281 281 281 281 280 280 280 280 281 280 281 281 279 279 277 277
241 242 243 244 245 248 250 253 255 257 258 259 261 264 266 268 270 272 273 274 275 276 278 280 281 281 281 280 280 280 280 279 279 278 279 279 278 278 278 276 275 274 274
241 242 244 245 248 250 252 255 256 257 258 259 262 265 268 270 272 272 272 274 275 278 280 282 282 282 282 282 281 280 279 279 278 277 277 277 276 276 274 272 272 271 271
243 245 247 248 250 252 254 256 258 260 261 262 264 267 269 272 273 273 274 276 277 279 280 282 283 283 283 282 281 280 279 278 278 277 276 275 274 272 271 269 270 270 269
247 250 252 253 253 254 256 258 259 262 263 265 267 269 271 274 275 275 276 278 279 280 281 282 282 282 282 281 280 279 278 278 277 276 274 273 271 269 269 268 268 268 268
253 254 255 255 255 257 259 261 263 265 267 269 270 272 274 275 277 278 279 280 281 282 282 282 282 282 282 280 279 278 276 276 276 275 273 270 268 267 267 266 266 266 266
257 257 257 258 259 260 262 264 265 268 271 272 274 275 276 277 278 279 281 283 283 283 283 282 283 283 282 280 279 277 276 276 275 274 272 268 266 265 266 266 265 265 264
260 261 261 263 263 263 265 268 270 272 274 276 277 279 280 280 281 282 284 285 285 285 284 284 284 282 281 280 278 277 276 275 272 271 269 265 263 263 263 264 265 265 262
263 263 265 267 268 269 270 273 275 276 278 280 282 283 284 284 284 285 285 285 286 286 286 285 283 282 281 280 278 277 277 275 272 269 267 265 262 262 261 262 262 261 259
268 269 270 272 273 273 275 277 278 281 281 283 285 286 285 286 286 285 285 285 285 284 285 286 284 283 281 278 277 276 275 273 270 266 263 262 260 259 259 260 260 259 259
276 276 277 278 278 278 279 281 284 286 286 286 287 288 288 288 288 288 287 287 286 286 286 285 284 283 280 278 276 275 273 270 268 264 261 259 258 259 259 258 257 256 257
281 281 282 283 283 283 284 286 288 289 289 289 290 290 291 291 290 290 289 288 288 288 287 285 283 281 279 278 274 271 270 267 265 261 260 258 258 259 258 257 257 256 255
287 287 287 287 287 287 288 289 290 291 292 292 292 292 292 293 293 292 291 290 289 288 286 285 283 282 279 277 274 271 268 265 263 260 258 257 258 258 256 256 255 253 251
Height
5817 5819 5821 5822 5824 5826 5827 5829 5830 5830 5831 5832 5833 5833 5834 5834 5834 5834 5834 5834 5834 5833 5833 5832 5831 5831 5830 5829 5828 5826 5825 5823 5822 5820 5818 5816 5814 5812 5810 5808 5806 5803 5801
5810 5812 5814 5815 5817 5819 5820 5822 5823 5824 5825 5826 5827 5827 5828 5828 5828 5828 5828 5828 5828 5827 5827 5826 5825 5825 5824 5823 5822 5820 5819 5817 5815 5813 5812 5810 5808 5806 5804 5801 5799 5797 5795
5801 5804 5806 5808 5810 5811 5813 5814 5816 5817 5818 5819 5820 5820 5821 5821 5821 5822 5822 5821 5821 5821 5820 5819 5819 5818 5817 5816 5815 5813 5812 5810 5809 5807 5805 5803 5801 5799 5797 5794 5792 5790 5788
5792 5795 5798 5800 5802 5803 5805 5807 5808 5809 5810 5811 5812 5813 5814 5814 5814 5815 5815 5814 5814 5814 5813 5812 5812 5811 5810 5809 5807 5806 5805 5803 5801 5799 5798 5796 5794 5792 5790 5787 5785 5783 5781
5783 5786 5789 5792 5793 5795 5797 5799 5800 5802 5803 5804 5805 5805 5806 5806 5807 5807 5807 5807 5807 5806 5806 5805 5804 5803 5802 5801 5800 5798 5797 5795 5794 5792 5790 5788 5787 5785 5782 5780 5778 5776 5774
5774 5777 5780 5782 5785 5787 5789 5791 5793 5794 5795 5796 5796 5797 5798 5799 5799 5799 5799 5799 5799 5798 5797 5796 5796 5795 5794 5793 5791 5790 5789 5787 5786 5784 5782 5780 5778 5777 5774 5772 5770 5769 5767
5764 5767 5770 5773 5776 5778 5780 5782 5784 5785 5786 5787 5788 5789 5790 5790 5791 5791 5791 5791 5791 5790 5789 5788 5787 5786 5785 5784 5783 5782 5780 5779 5777 5775 5773 5771 5770 5768 5766 5764 5762 5760 5759
5754 5757 5761 5763 5766 5769 5771 5773 5775 5776 5777 5778 5779 5780 5781 5782 5783 5783 5783 5782 5782 5781 5780 5779 5778 5778 5776 5775 5774 5773 5771 5769 5768 5766 5764 5763 5761 5759 5757 5756 5754 5752 5750
5742 5747 5750 5754 5756 5759 5762 5764 5766 5767 5769 5770 5770 5771 5772 5773 5774 5774 5774 5773 5772 5772 5771 5770 5769 5768 5767 5765 5764 5763 5762 5760 5758 5756 5754 5753 5751 5750 5748 5747 5745 5743 5741
5731 5736 5740 5743 5747 5750 5752 5755 5757 5758 5759 5760 5761 5762 5763 5763 5763 5764 5765 5763 5762 5762 5761 5760 5759 5758 5756 5755 5754 5753 5751 5749 5748 5746 5744 5743 5741 5739 5738 5737 5735 5734 5732
5720 5725 5730 5733 5736 5740 5742 5745 5747 5749 5749 5751 5752 5752 5752 5752 5752 5753 5754 5754 5753 5752 5751 5749 5748 5747 5745 5744 5743 5741 5740 5738 5736 5735 5733 5731 5730 5728 5727 5726 5725 5724 5723
5710 5715 5719 5723 5726 5729 5732 5735 5737 5738 5740 5741 5742 5742 5742 5742 5742 5742 5743 5743 5742 5742 5740 5739 5737 5736 5734 5732 5731 5729 5727 5725 5724 5722 5720 5718 5717 5716 5715 5714 5714 5713 5712
5700 5705 5709 5713 5716 5719 5722 5724 5726 5728 5730 5731 5731 5732 5732 5731 5731 5731 5731 5731 5731 5731 5729 5728 5726 5724 5722 5720 5718 5716 5714 5712 5710 5708 5707 5706 5705 5704 5703 5702 5702 5702 5701
5691 5695 5699 5703 5706 5709 5711 5714 5716 5718 5719 5720 5721 5721 5721 5721 5720 5719 5719 5718 5718 5718 5718 5716 5714 5712 5709 5706 5704 5701 5699 5697 5696 5694 5693 5693 5692 5691 5690 5690 5690 5690 5690
5682 5685 5689 5692 5696 5698 5701 5703 5706 5708 5709 5710 5710 5710 5710 5709 5708 5707 5706 5705 5704 5703 5704 5703 5701 5698 5695 5692 5689 5686 5684 5682 5681 5679 5679 5678 5678 5677 5676 5677 5677 5677 5678
5673 5676 5680 5683 5686 5688 5691 5693 5695 5696 5697 5698 5699 5698 5698 5697 5696 5695 5693 5691 5689 5688 5688 5688 5685 5682 5679 5676 5673 5670 5668 5667 5665 5664 5663 5663 5663 5662 5662 5663 5664 5665 5665
5665 5668 5671 5673 5676 5678 5680 5682 5684 5685 5686 5687 5687 5686 5686 5685 5683 5681 5680 5677 5675 5672 5671 5671 5668 5665 5661 5658 5655 5653 5651 5649 5648 5647 5647 5646 5647 5647 5648 5649 5650 5652 5653
5658 5660 5662 5664 5667 5669 5670 5672 5673 5674 5675 5675 5675 5674 5673 5671 5669 5667 5665 5662 5660 5657 5653 5652 5650 5647 5644 5640 5638 5636 5634 5632 5631 5631 5630 5631 5631 5633 5634 5636 5637 5638 5640
5651 5652 5654 5656 5658 5660 5661 5662 5663 5663 5663 5663 5662 5661 5659 5658 5655 5652 5650 5647 5644 5640 5636 5633 5631 5629 5625 5622 5619 5618 5616 5615 5615 5614 5615 5616 5617 5618 5620 5622 5624 5626 5628
5644 5646 5647 5648 5650 5651 5652 5652 5652 5652 5652 5651 5650 5648 5646 5643 5640 5637 5634 5631 5627 5623 5619 5615 5612 5609 5606 5603 5600 5599 5599 5599 5599 5599 5599 5600 5602 5604 5606 5609 5611 5613 5615
5638 5639 5640 5641 5641 5642 5642 5642 5642 5641 5640 5639 5637 5635 5632 5629 5625 5622 5619 5615 5610 5606 5602 5598 5594 5591 5588 5586 5584 5582 5581 5581 5581 5583 5584 5586 5588 5590 5593 5595 5597 5600 5602
5632 5632 5633 5633 5633 5633 5633 5632 5631 5630 5628 5626 5624 5621 5618 5614 5610 5606 5602 5598 5594 5590 5586 5581 5578 5574 5572 5569 5567 5566 5564 5564 5565 5568 5568 5571 5573 5576 5579 5582 5584 5587 5590
5626 5626 5626 5625 5625 5624 5623 5621 5620 5618 5615 5613 5610 5607 5604 5600 5595 5591 5586 5582 5577 5573 5569 5564 5561 5558 5556 5554 5551 5550 5549 5548 5549 5551 5553 5556 5558 5561 5565 5568 5571 5574 5577
5620 5620 5618 5617 5616 5614 5612 5610 5608 5605 5603 5600 5596 5592 5589 5585 5580 5576 5571 5566 5562 5557 5553 5548 5545 5542 5539 5537 5535 5535 5534 5534 5535 5536 5538 5542 5545 5548 5551 5555 5558 5561 5565
5614 5612 5611 5608 5606 5604 5602 5599 5596 5593 5590 5586 5582 5577 5573 5570 5565 5560 5555 5551 5546 5541 5536 5532 5529 5526 5524 5522 5520 5519 5519 5519 5521 5523 5526 5529 5533 5536 5538 5542 5546 5549 5553
5606 5603 5601 5599 5596 5593 5591 5587 5584 5581 5577 5573 5568 5563 5559 5554 5549 5543 5538 5534 5530 5526 5521 5518 5514 5511 5509 5507 5505 5504 5505 5505 5507 5510 5513 5516 5520 5523 5526 5530 5533 5537 5540